Simultaneous Nadir Overpasses (SNOs) Predictions

Prediction of SNOs between GOES-14 and AQUA Satellite Orbit:

Table of predicted SNOs for the next 14.0 days since TLE Epoch: 7/3/2021
Index Date Time (GOES-14) GOES-14 Lat,Lon AQUA Lat,Lon Distance(km) Time Diff (sec)
1 07/03/2021 20:32:35 0.13,-104.34 0.23,-103.99 40.53 80
2 07/05/2021 20:20:24 0.13,-104.34 0.82,-101.03 376.43 80
3 07/06/2021 08:39:00 -0.16,-104.10 0.28,-106.19 237.57 80
4 07/08/2021 08:29:30 -0.16,-104.10 -0.37,-103.24 98.10 80
5 07/08/2021 20:48:15 0.19,-104.34 -0.69,-108.44 466.69 80
6 07/10/2021 08:17:19 -0.16,-104.09 -0.97,-100.28 433.62 80
7 07/10/2021 20:36:05 0.19,-104.34 -0.03,-105.49 131.06 80
8 07/12/2021 20:26:34 0.19,-104.33 0.57,-102.53 204.64 80
9 07/13/2021 08:45:10 -0.22,-104.10 0.52,-107.69 408.46 80
10 07/15/2021 08:32:59 -0.21,-104.09 -0.08,-104.73 72.60 80
